EFOU Weather Reports


time (UTC)temp
C
wind
direction
speed
KPH
gust
KPH
rain 1hr
cm
rain 24hr
cm
rain mn
cm
humidity
%
barometer
mb
20260506154719 5 263 14.5 25.7 0.00 0.00 0.00 74 1010.7
20260506152719 5 279 17.7 24.1 0.00 0.00 0.00 73 1010.6
20260506150719 5 280 19.3 24.1 0.00 0.00 0.00 74 1010.4
20260506144719 6 291 19.3 30.6 0.00 0.00 0.00 68 1010.1
20260506142718 6 322 16.1 30.6 0.00 0.00 0.00 63 1010.0
20260506140718 6 319 17.7 25.7 0.00 0.00 0.00 66 1009.9
20260506134718 5 311 19.3 24.1 0.00 0.00 0.00 66 1009.7
20260506132719 6 296 17.7 24.1 0.00 0.00 0.00 70 1009.4
20260506130718 5 303 16.1 22.5 0.00 0.00 0.00 76 1009.2
20260506124718 5 329 16.1 24.1 0.00 0.00 0.00 77 1009.0
20260506122718 5 331 14.5 19.3 0.00 0.00 0.00 78 1008.7
20260506120718 5 332 14.5 20.9 0.00 0.00 0.00 81 1008.6
20260506114718 4 313 12.9 20.9 0.00 0.00 0.00 84 1008.1
20260506112719 4 323 12.9 17.7 0.00 0.00 0.00 86 1007.9
20260506110718 4 320 12.9 17.7 0.00 0.00 0.00 86 1007.7
20260506104718 3 283 14.5 20.9 0.00 0.00 0.00 91 1007.4
20260506102718 3 292 14.5 20.9 0.00 0.00 0.00 90 1007.1
20260506100718 4 288 9.7 19.3 0.00 0.00 0.00 91 1006.8
20260506094718 3 285 12.9 22.5 0.00 0.00 0.00 91 1006.5
20260506092718 3 277 11.3 17.7 0.00 0.00 0.00 93 1006.2
20260506090718 2 285 12.9 17.7 0.00 0.00 0.00 93 1006.0
20260506084718 2 279 11.3 17.7 0.00 0.00 0.00 95 1005.8
20260506082718 2 284 11.3 17.7 0.00 0.00 0.00 94 1005.5
20260506080718 2 278 9.7 16.1 0.00 0.00 0.00 93 1005.2
20260506072718 2 264 11.3 17.7 0.00 0.00 0.00 91 1004.5
20260506070718 2 267 12.9 19.3 0.00 0.00 0.00 91 1004.2
20260506060717 2 279 17.7 27.4 0.00 0.00 0.00 94 1003.2
20260506050717 2 289 16.1 20.9 0.00 0.00 0.00 94 1002.5
20260506044717 2 286 17.7 29.0 0.00 0.00 0.00 92 1002.3
20260506042717 2 288 14.5 22.5 0.00 0.00 0.00 93 1002.1
20260506040717 2 290 17.7 25.7 0.00 0.00 0.00 93 1001.9
20260506034717 2 293 17.7 24.1 0.00 0.00 0.00 92 1001.7
20260506032717 2 290 16.1 22.5 0.00 0.00 0.00 92 1001.6
20260506030717 2 293 16.1 24.1 0.00 0.00 0.00 92 1001.4
20260506024717 2 292 16.1 27.4 0.00 0.00 0.00 90 1001.3
20260506022717 2 291 17.7 27.4 0.00 0.00 0.00 89 1001.1
20260506020716 2 295 14.5 20.9 0.00 0.00 0.00 90 1001.0
20260506014717 2 292 17.7 25.7 0.00 0.00 0.00 90 1000.9
20260506012716 3 292 14.5 20.9 0.00 0.00 0.00 89 1000.8
20260506010716 3 287 14.5 20.9 0.00 0.00 0.00 88 1000.7
20260506004716 2 289 17.7 27.4 0.00 0.00 0.00 89 1000.5
20260506002716 2 290 16.1 25.7 0.00 0.00 0.00 90 1000.5
20260506000716 2 289 20.9 35.4 0.00 0.00 0.00 90 1000.4
20260505234716 2 289 20.9 33.8 0.00 0.00 0.00 90 1000.3
20260505232716 3 289 24.1 35.4 0.00 0.00 0.00 90 1000.2
20260505230716 2 283 20.9 30.6 0.00 0.00 0.00 92 1000.3
20260505224716 3 288 24.1 37.0 0.00 0.00 0.00 88 1000.2
20260505222716 3 293 20.9 30.6 0.00 0.00 0.00 83 1000.2
20260505220716 3 292 19.3 29.0 0.00 0.00 0.00 84 1000.2
20260505214716 3 289 19.3 30.6 0.00 0.00 0.00 84 1000.1
20260505212716 3 292 19.3 27.4 0.00 0.00 0.00 84 1000.1
20260505210716 3 288 16.1 25.7 0.00 0.00 0.00 84 1000.0
20260505204716 3 287 17.7 27.4 0.00 0.00 0.00 81 999.8
20260505202716 3 264 12.9 20.9 0.00 0.00 0.00 82 999.8
20260505200716 3 269 14.5 25.7 0.00 0.00 0.00 81 999.7
20260505194715 3 281 14.5 24.1 0.00 0.00 0.00 79 999.6
20260505192715 4 274 14.5 25.7 0.00 0.00 0.00 77 999.6
20260505190715 3 276 9.7 17.7 0.00 0.00 0.00 77 999.6
20260505184715 4 287 16.1 24.1 0.00 0.00 0.00 73 999.5
20260505182715 5 280 19.3 33.8 0.00 0.00 0.00 69 999.2
20260505180715 5 280 19.3 35.4 0.00 0.00 0.00 64 999.1
20260505174715 5 280 22.5 33.8 0.00 0.00 0.00 62 999.0
20260505172715 5 278 24.1 41.8 0.00 0.00 0.00 63 998.9
20260505170715 5 286 22.5 33.8 0.00 0.00 0.00 67 998.8
20260505164715 5 279 25.7 40.2 0.00 0.00 0.00 68 998.7
20260505162715 6 283 20.9 29.0 0.00 0.00 0.00 65 998.4
20260505160715 6 283 25.7 40.2 0.00 0.00 0.00 65 998.3